Location: Dover
(48.8500°N, 53.9833°W)
Time: 07:28:41
(UTC+00:00)

USA 281 - Pass Details

Date: 14 November 2025
Orbit: 1079 x 1080 km, 106.0° (Epoch: 11 December)

Event Time Altitude Azimuth Distance (km) Brightness Sun altitude
Exits shadow 23:20:25 67° 230° (SW) 1,163 3.3 -33.4°
Maximum altitude 23:20:42 68° 247° (WSW) 1,158 3.4 -33.5°
Drops below altitude 10° 23:27:16 10° 330° (NNW) 2,930 5.9 -34.5°
Sets 23:29:49 0° 333° (NNW) 3,890 6.6 -34.9°
